Simultaneous Nadir Overpasses (SNOs) Predictions

Prediction of SNOs between GOES-16 and METOP-B Satellite Orbit:

Table of predicted SNOs for the next 14.0 days since TLE Epoch: 2/11/2023
Index Date Time (GOES-16) GOES-16 Lat,Lon METOP-B Lat,Lon Distance(km) Time Diff (sec)
1 02/12/2023 14:28:08 0.02, -75.21 -0.07, -74.80 46.16 80
2 02/14/2023 02:49:50 -0.02, -75.20 -0.95, -79.40 479.02 80
3 02/15/2023 02:26:30 -0.02, -75.20 0.13, -74.40 90.22 80
4 02/16/2023 14:48:03 0.02, -75.22 0.88, -78.97 427.28 80
5 02/17/2023 14:24:44 0.02, -75.23 -0.26, -73.98 142.31 80
6 02/19/2023 02:46:24 -0.03, -75.23 -0.79, -78.58 382.03 80
7 02/20/2023 02:23:06 -0.03, -75.24 0.36, -73.59 188.02 80
8 02/21/2023 14:41:57 0.03, -75.27 0.69, -78.15 328.06 80
9 02/22/2023 14:23:59 0.03, -75.29 -0.47, -73.16 242.73 80
10 02/24/2023 02:42:59 -0.03, -75.30 -0.56, -77.76 279.82 80
